Location: Unspecified
(0.0000°N, 0.0000°E)
Time: 04:48:22
(UTC+00:00)

Tiros 1 - Pass Details

Date: 07 October 2020
Orbit: 630 x 663 km, 48.4° (Epoch: 28 October)

Event Time Altitude Azimuth Distance (km) Brightness Sun altitude
Rises 06:46:29 0° 182° (S) 2,916 10.6 14.6°
Reaches altitude 10° 06:50:50 10° 144° (SE) 2,003 10.4 15.7°
Maximum altitude 06:51:52 11° 131° (SE) 1,958 10.7 15.9°
Drops below altitude 10° 06:52:54 10° 118° (ESE) 2,001 11.2 16.2°
Sets 06:57:13 0° 79° (E) 2,906 12.0 17.3°
